Time,TemperatureF,DewpointF,PressureIn,WindDirection,WindDirectionDegrees,WindSpeedMPH,WindSpeedGustMPH,Humidity,HourlyPrecipIn,Conditions,Clouds,dailyrainin,SoftwareType,DateUTC
2013-05-02 00:02:00,58.6,51.8,30.28,East,90,1.6,3.8,78,0.00,,,0.00,pywws,2013-05-02 04:02:00,
2013-05-02 00:05:00,58.6,51.8,30.28,East,90,1.6,3.8,78,0.00,,,0.00,pywws,2013-05-02 04:05:00,
2013-05-02 00:09:00,58.5,51.6,30.28,NE,45,1.6,3.1,78,0.00,,,0.00,pywws,2013-05-02 04:09:00,
2013-05-02 00:10:00,58.5,51.6,30.28,NE,45,4.5,6.9,78,0.00,,,0.00,pywws,2013-05-02 04:10:00,
2013-05-02 00:16:00,58.3,51.4,30.27,East,90,1.6,3.1,78,0.00,,,0.00,pywws,2013-05-02 04:16:00,
2013-05-02 00:27:00,58.3,51.1,30.27,East,90,2.2,3.8,77,0.00,,,0.00,pywws,2013-05-02 04:27:00,
2013-05-02 00:32:00,58.3,51.1,30.27,North,0,1.6,3.1,77,0.00,,,0.00,pywws,2013-05-02 04:32:00,
2013-05-02 00:38:00,58.1,50.9,30.27,East,90,1.6,3.8,77,0.00,,,0.00,pywws,2013-05-02 04:38:00,
2013-05-02 00:43:00,57.9,51.1,30.27,South,180,0.7,2.2,78,0.00,,,0.00,pywws,2013-05-02 04:43:00,
2013-05-02 00:49:00,57.9,51.1,30.27,East,90,0.0,0.0,78,0.00,,,0.00,pywws,2013-05-02 04:49:00,
2013-05-02 00:54:00,57.9,51.1,30.27,South,180,1.6,2.2,78,0.00,,,0.00,pywws,2013-05-02 04:54:00,
2013-05-02 01:00:00,57.9,51.1,30.27,SW,225,0.7,1.6,78,0.00,,,0.00,pywws,2013-05-02 05:00:00,
2013-05-02 01:06:00,57.9,51.1,30.27,SE,135,1.6,2.2,78,0.00,,,0.00,pywws,2013-05-02 05:06:00,
2013-05-02 01:11:00,57.9,51.1,30.27,NE,45,2.2,3.8,78,0.00,,,0.00,pywws,2013-05-02 05:11:00,
2013-05-02 01:17:00,57.7,50.9,30.27,East,90,0.0,1.6,78,0.00,,,0.00,pywws,2013-05-02 05:17:00,
2013-05-02 01:22:00,57.7,50.9,30.27,East,90,1.6,2.2,78,0.00,,,0.00,pywws,2013-05-02 05:22:00,
2013-05-02 01:28:00,57.6,50.8,30.27,East,90,1.6,3.8,78,0.00,,,0.00,pywws,2013-05-02 05:28:00,
2013-05-02 01:34:00,57.6,50.8,30.27,South,180,3.1,6.9,78,0.00,,,0.00,pywws,2013-05-02 05:34:00,
2013-05-02 01:39:00,57.7,50.9,30.27,East,90,3.8,4.5,78,0.00,,,0.00,pywws,2013-05-02 05:39:00,
2013-05-02 01:45:00,57.6,50.8,30.27,East,90,2.2,3.8,78,0.00,,,0.00,pywws,2013-05-02 05:45:00,
2013-05-02 01:50:00,57.6,50.8,30.27,SW,225,3.8,5.4,78,0.00,,,0.00,pywws,2013-05-02 05:50:00,
2013-05-02 01:56:00,57.6,50.8,30.27,South,180,3.8,7.6,78,0.00,,,0.00,pywws,2013-05-02 05:56:00,
2013-05-02 02:02:00,57.6,50.8,30.27,NE,45,0.7,2.2,78,0.00,,,0.00,pywws,2013-05-02 06:02:00,
2013-05-02 02:07:00,57.4,50.9,30.27,North,0,1.6,2.2,79,0.00,,,0.00,pywws,2013-05-02 06:07:00,
2013-05-02 02:13:00,57.2,50.7,30.27,SE,135,3.1,6.0,79,0.00,,,0.00,pywws,2013-05-02 06:13:00,
2013-05-02 02:18:00,57.2,50.7,30.26,NE,45,0.7,2.2,79,0.00,,,0.00,pywws,2013-05-02 06:18:00,
2013-05-02 02:24:00,57.0,51.2,30.26,NE,45,1.6,3.1,81,0.00,,,0.00,pywws,2013-05-02 06:24:00,
2013-05-02 02:30:00,56.8,50.7,30.26,East,90,1.6,3.1,80,0.00,,,0.00,pywws,2013-05-02 06:30:00,
2013-05-02 02:35:00,56.7,50.6,30.25,East,90,0.7,1.6,80,0.00,,,0.00,pywws,2013-05-02 06:35:00,
2013-05-02 02:41:00,56.5,50.4,30.26,South,180,1.6,2.2,80,0.00,,,0.00,pywws,2013-05-02 06:41:00,
2013-05-02 02:46:00,56.3,50.5,30.26,East,90,3.8,6.0,81,0.00,,,0.00,pywws,2013-05-02 06:46:00,
2013-05-02 02:52:00,56.1,50.4,30.26,NE,45,1.6,2.2,81,0.00,,,0.00,pywws,2013-05-02 06:52:00,
2013-05-02 02:58:00,56.1,50.7,30.26,SE,135,2.2,4.5,82,0.00,,,0.00,pywws,2013-05-02 06:58:00,
2013-05-02 03:03:00,55.9,50.9,30.26,East,90,2.2,5.4,83,0.00,,,0.00,pywws,2013-05-02 07:03:00,
2013-05-02 03:09:00,55.9,50.9,30.26,NE,45,1.6,3.8,83,0.00,,,0.00,pywws,2013-05-02 07:09:00,
2013-05-02 03:14:00,55.8,51.0,30.26,NE,45,0.7,2.2,84,0.00,,,0.00,pywws,2013-05-02 07:14:00,
2013-05-02 03:20:00,55.8,51.0,30.26,SW,225,3.1,4.5,84,0.00,,,0.00,pywws,2013-05-02 07:20:00,
2013-05-02 03:26:00,55.6,51.1,30.25,NE,45,0.7,1.6,85,0.00,,,0.00,pywws,2013-05-02 07:26:00,
2013-05-02 03:31:00,55.6,51.1,30.25,East,90,3.1,4.5,85,0.00,,,0.00,pywws,2013-05-02 07:31:00,
2013-05-02 03:37:00,55.6,51.1,30.25,East,90,0.7,1.6,85,0.00,,,0.00,pywws,2013-05-02 07:37:00,
2013-05-02 03:43:00,55.6,51.1,30.25,NE,45,0.7,2.2,85,0.00,,,0.00,pywws,2013-05-02 07:43:00,
2013-05-02 03:48:00,55.6,51.1,30.25,East,90,2.2,3.8,85,0.00,,,0.00,pywws,2013-05-02 07:48:00,
2013-05-02 03:54:00,55.4,51.3,30.25,East,90,2.2,3.8,86,0.00,,,0.00,pywws,2013-05-02 07:54:00,
2013-05-02 03:59:00,55.4,51.3,30.25,South,180,1.6,3.1,86,0.00,,,0.00,pywws,2013-05-02 07:59:00,
2013-05-02 04:05:00,55.4,51.3,30.25,South,180,1.6,3.1,86,0.00,,,0.00,pywws,2013-05-02 08:05:00,
2013-05-02 04:10:00,55.0,51.5,30.25,SE,135,2.2,3.1,88,0.00,,,0.00,pywws,2013-05-02 08:10:00,
2013-05-02 04:16:00,54.7,51.5,30.25,NE,45,1.6,3.1,89,0.00,,,0.00,pywws,2013-05-02 08:16:00,
2013-05-02 04:22:00,54.5,51.9,30.25,East,90,1.6,2.2,91,0.00,,,0.00,pywws,2013-05-02 08:22:00,
2013-05-02 04:27:00,54.5,51.9,30.25,East,90,0.7,3.1,91,0.00,,,0.00,pywws,2013-05-02 08:27:00,
2013-05-02 04:33:00,54.5,51.9,30.25,West,270,0.0,1.6,91,0.00,,,0.00,pywws,2013-05-02 08:33:00,
2013-05-02 04:38:00,54.5,51.9,30.25,ESE,112,0.0,1.6,91,0.00,,,0.00,pywws,2013-05-02 08:38:00,
2013-05-02 04:44:00,54.5,52.2,30.25,SE,135,1.6,2.2,92,0.00,,,0.00,pywws,2013-05-02 08:44:00,
2013-05-02 04:50:00,54.3,52.0,30.25,SE,135,2.2,3.1,92,0.00,,,0.00,pywws,2013-05-02 08:50:00,
2013-05-02 04:55:00,54.3,52.3,30.24,South,180,0.7,3.1,93,0.00,,,0.00,pywws,2013-05-02 08:55:00,
2013-05-02 05:01:00,54.3,52.3,30.24,East,90,0.7,1.6,93,0.00,,,0.00,pywws,2013-05-02 09:01:00,
2013-05-02 05:06:00,54.3,52.3,30.24,East,90,0.7,2.2,93,0.00,,,0.00,pywws,2013-05-02 09:06:00,
2013-05-02 05:12:00,54.1,52.5,30.24,East,90,1.6,2.2,94,0.00,,,0.00,pywws,2013-05-02 09:12:00,
2013-05-02 05:18:00,54.1,52.5,30.24,South,180,0.7,1.6,94,0.00,,,0.00,pywws,2013-05-02 09:18:00,
2013-05-02 05:32:00,54.1,52.5,30.24,ENE,68,1.6,3.8,94,0.00,,,0.00,pywws,2013-05-02 09:32:00,
2013-05-02 05:38:00,54.1,52.7,30.24,SE,135,0.7,1.6,95,0.00,,,0.00,pywws,2013-05-02 09:38:00,
2013-05-02 05:43:00,54.1,52.7,30.24,South,180,1.6,3.1,95,0.00,,,0.00,pywws,2013-05-02 09:43:00,
2013-05-02 05:49:00,54.0,52.6,30.24,SW,225,0.7,2.2,95,0.00,,,0.00,pywws,2013-05-02 09:49:00,
2013-05-02 05:54:00,54.0,52.6,30.24,WNW,292,1.6,2.2,95,0.00,,,0.00,pywws,2013-05-02 09:54:00,
2013-05-02 06:00:00,54.0,52.8,30.24,South,180,1.6,2.2,96,0.00,,,0.00,pywws,2013-05-02 10:00:00,
2013-05-02 06:06:00,54.0,52.8,30.24,South,180,1.6,2.2,96,0.00,,,0.00,pywws,2013-05-02 10:06:00,
2013-05-02 06:12:00,54.0,52.8,30.25,East,90,0.7,2.2,96,0.00,,,0.00,pywws,2013-05-02 10:12:00,
2013-05-02 06:18:00,54.0,52.8,30.25,SW,225,3.1,4.5,96,0.01,,,0.01,pywws,2013-05-02 10:18:00,
2013-05-02 06:23:00,54.0,52.8,30.25,East,90,1.6,3.8,96,0.01,,,0.01,pywws,2013-05-02 10:23:00,
2013-05-02 06:29:00,54.0,52.8,30.25,SW,225,1.6,4.5,96,0.01,,,0.01,pywws,2013-05-02 10:29:00,
2013-05-02 06:34:00,54.0,52.8,30.25,SE,135,1.6,2.2,96,0.01,,,0.01,pywws,2013-05-02 10:34:00,
2013-05-02 06:41:00,54.0,52.8,30.25,South,180,0.7,3.1,96,0.01,,,0.01,pywws,2013-05-02 10:41:00,
2013-05-02 06:46:00,54.0,52.8,30.25,NW,315,1.6,2.2,96,0.01,,,0.01,pywws,2013-05-02 10:46:00,
2013-05-02 06:52:00,54.0,52.8,30.25,West,270,1.6,2.2,96,0.01,,,0.01,pywws,2013-05-02 10:52:00,
2013-05-02 06:58:00,54.0,52.8,30.26,SE,135,0.0,0.7,96,0.01,,,0.01,pywws,2013-05-02 10:58:00,
2013-05-02 07:03:00,54.0,52.8,30.26,South,180,2.2,3.8,96,0.01,,,0.01,pywws,2013-05-02 11:03:00,
2013-05-02 07:09:00,54.1,53.0,30.25,South,180,2.2,3.8,96,0.01,,,0.01,pywws,2013-05-02 11:09:00,
2013-05-02 07:14:00,54.1,53.0,30.26,SE,135,1.6,3.8,96,0.00,,,0.01,pywws,2013-05-02 11:14:00,
2013-05-02 07:20:00,54.1,53.0,30.26,SE,135,0.7,1.6,96,0.00,,,0.01,pywws,2013-05-02 11:20:00,
2013-05-02 07:26:00,54.1,52.7,30.26,SE,135,3.8,7.6,95,0.00,,,0.01,pywws,2013-05-02 11:26:00,
2013-05-02 07:31:00,54.3,52.6,30.26,North,0,2.2,3.1,94,0.00,,,0.01,pywws,2013-05-02 11:31:00,
2013-05-02 07:37:00,54.3,52.6,30.26,SW,225,2.2,4.5,94,0.00,,,0.01,pywws,2013-05-02 11:37:00,
2013-05-02 07:42:00,54.3,52.6,30.26,South,180,0.7,2.2,94,0.00,,,0.01,pywws,2013-05-02 11:42:00,
2013-05-02 07:48:00,54.5,52.8,30.27,South,180,3.1,5.4,94,0.00,,,0.01,pywws,2013-05-02 11:48:00,
2013-05-02 07:54:00,54.5,52.5,30.27,East,90,2.2,3.1,93,0.00,,,0.01,pywws,2013-05-02 11:54:00,
2013-05-02 07:59:00,54.5,52.2,30.27,South,180,0.7,2.2,92,0.00,,,0.01,pywws,2013-05-02 11:59:00,
2013-05-02 08:05:00,54.5,52.2,30.27,South,180,0.7,2.2,92,0.00,,,0.01,pywws,2013-05-02 12:05:00,
2013-05-02 08:10:00,54.7,52.1,30.27,North,0,2.2,3.8,91,0.00,,,0.01,pywws,2013-05-02 12:10:00,
2013-05-02 08:16:00,54.9,52.3,30.27,East,90,3.8,6.0,91,0.00,,,0.01,pywws,2013-05-02 12:16:00,
2013-05-02 08:22:00,55.2,52.6,30.27,SW,225,1.6,3.8,91,0.00,,,0.01,pywws,2013-05-02 12:22:00,
2013-05-02 08:27:00,55.8,52.9,30.27,NE,45,3.1,4.5,90,0.00,,,0.01,pywws,2013-05-02 12:27:00,
2013-05-02 08:33:00,56.1,52.6,30.27,East,90,2.2,6.9,88,0.00,,,0.01,pywws,2013-05-02 12:33:00,
2013-05-02 08:38:00,56.7,52.5,30.27,East,90,3.1,5.4,86,0.00,,,0.01,pywws,2013-05-02 12:38:00,
2013-05-02 08:44:00,56.8,52.4,30.27,South,180,3.1,5.4,85,0.00,,,0.01,pywws,2013-05-02 12:44:00,
2013-05-02 08:50:00,57.2,52.7,30.28,South,180,2.2,5.4,85,0.00,,,0.01,pywws,2013-05-02 12:50:00,
2013-05-02 08:55:00,57.7,53.3,30.27,SW,225,0.0,1.6,85,0.00,,,0.01,pywws,2013-05-02 12:55:00,
2013-05-02 09:01:00,57.6,53.1,30.28,South,180,1.6,3.1,85,0.00,,,0.01,pywws,2013-05-02 13:01:00,
2013-05-02 09:06:00,57.6,52.8,30.28,SSE,158,2.2,4.5,84,0.00,,,0.01,pywws,2013-05-02 13:06:00,
2013-05-02 09:12:00,57.2,51.8,30.28,East,90,0.7,3.1,82,0.00,,,0.01,pywws,2013-05-02 13:12:00,
2013-05-02 09:18:00,56.8,51.7,30.28,SE,135,3.8,6.0,83,0.00,,,0.01,pywws,2013-05-02 13:18:00,
2013-05-02 09:23:00,56.7,50.9,30.28,SE,135,3.1,4.5,81,0.00,,,0.01,pywws,2013-05-02 13:23:00,
2013-05-02 09:29:00,56.5,51.1,30.28,East,90,3.1,4.5,82,0.00,,,0.01,pywws,2013-05-02 13:29:00,
2013-05-02 09:34:00,56.5,50.7,30.28,SE,135,0.7,2.2,81,0.00,,,0.01,pywws,2013-05-02 13:34:00,
2013-05-02 09:40:00,56.5,51.1,30.28,East,90,3.8,5.4,82,0.00,,,0.01,pywws,2013-05-02 13:40:00,
2013-05-02 09:46:00,56.1,50.4,30.29,NE,45,0.7,1.6,81,0.00,,,0.01,pywws,2013-05-02 13:46:00,
2013-05-02 09:51:00,56.3,50.5,30.29,North,0,1.6,3.1,81,0.00,,,0.01,pywws,2013-05-02 13:51:00,
2013-05-02 09:57:00,56.5,50.7,30.28,East,90,3.1,7.6,81,0.00,,,0.01,pywws,2013-05-02 13:57:00,
2013-05-02 10:02:00,56.7,50.6,30.29,East,90,1.6,2.2,80,0.00,,,0.01,pywws,2013-05-02 14:02:00,
2013-05-02 10:08:00,56.7,50.6,30.29,SE,135,3.1,4.5,80,0.00,,,0.01,pywws,2013-05-02 14:08:00,
2013-05-02 10:14:00,56.8,50.4,30.29,East,90,2.2,6.0,79,0.00,,,0.01,pywws,2013-05-02 14:14:00,
2013-05-02 10:19:00,56.8,50.4,30.29,SE,135,1.6,3.1,79,0.00,,,0.01,pywws,2013-05-02 14:19:00,
2013-05-02 10:25:00,57.0,50.9,30.29,SE,135,0.7,1.6,80,0.00,,,0.01,pywws,2013-05-02 14:25:00,
2013-05-02 10:30:00,57.4,50.9,30.29,East,90,1.6,2.2,79,0.00,,,0.01,pywws,2013-05-02 14:30:00,
2013-05-02 10:36:00,57.9,50.8,30.29,NE,45,0.7,1.6,77,0.00,,,0.01,pywws,2013-05-02 14:36:00,
2013-05-02 10:42:00,58.5,50.9,30.29,East,90,1.6,2.2,76,0.00,,,0.01,pywws,2013-05-02 14:42:00,
2013-05-02 10:47:00,58.8,51.3,30.30,East,90,2.2,4.5,76,0.00,,,0.01,pywws,2013-05-02 14:47:00,
2013-05-02 10:53:00,58.6,51.1,30.30,SE,135,0.0,1.6,76,0.00,,,0.01,pywws,2013-05-02 14:53:00,
2013-05-02 10:58:00,58.5,50.9,30.30,East,90,1.6,2.2,76,0.00,,,0.01,pywws,2013-05-02 14:58:00,
2013-05-02 11:04:00,58.6,51.4,30.30,East,90,2.2,3.8,77,0.00,,,0.01,pywws,2013-05-02 15:04:00,
2013-05-02 11:10:00,58.5,51.3,30.30,East,90,0.7,2.2,77,0.00,,,0.01,pywws,2013-05-02 15:10:00,
2013-05-02 11:15:00,58.5,51.3,30.30,NE,45,0.7,1.6,77,0.00,,,0.01,pywws,2013-05-02 15:15:00,
2013-05-02 11:21:00,58.5,51.6,30.30,East,90,3.1,3.8,78,0.00,,,0.01,pywws,2013-05-02 15:21:00,
2013-05-02 11:26:00,58.5,51.3,30.30,East,90,0.7,3.1,77,0.00,,,0.01,pywws,2013-05-02 15:26:00,
2013-05-02 11:32:00,58.6,51.1,30.30,East,90,0.0,0.7,76,0.00,,,0.01,pywws,2013-05-02 15:32:00,
2013-05-02 11:38:00,59.9,52.0,30.30,East,90,2.2,3.8,75,0.00,,,0.01,pywws,2013-05-02 15:38:00,
2013-05-02 11:43:00,60.8,51.7,30.30,NE,45,1.6,3.1,72,0.00,,,0.01,pywws,2013-05-02 15:43:00,
2013-05-02 11:49:00,61.9,52.8,30.29,SE,135,3.1,6.9,72,0.00,,,0.01,pywws,2013-05-02 15:49:00,
2013-05-02 11:54:00,62.6,52.3,30.29,South,180,0.7,1.6,69,0.00,,,0.01,pywws,2013-05-02 15:54:00,
2013-05-02 12:00:00,63.9,53.1,30.29,East,90,2.2,4.5,68,0.00,,,0.01,pywws,2013-05-02 16:00:00,
2013-05-02 12:06:00,64.2,53.0,30.29,SW,225,3.8,6.9,67,0.00,,,0.01,pywws,2013-05-02 16:06:00,
2013-05-02 12:11:00,63.3,51.8,30.29,South,180,3.8,6.9,66,0.00,,,0.01,pywws,2013-05-02 16:11:00,
2013-05-02 12:17:00,63.3,52.6,30.29,SE,135,0.7,2.2,68,0.00,,,0.01,pywws,2013-05-02 16:17:00,
2013-05-02 12:22:00,64.8,53.5,30.29,NE,45,0.7,1.6,67,0.00,,,0.01,pywws,2013-05-02 16:22:00,
2013-05-02 12:28:00,66.2,54.5,30.29,SE,135,2.2,3.1,66,0.00,,,0.01,pywws,2013-05-02 16:28:00,
2013-05-02 12:34:00,66.9,54.3,30.29,South,180,0.7,2.2,64,0.00,,,0.01,pywws,2013-05-02 16:34:00,
2013-05-02 12:39:00,68.0,53.1,30.29,South,180,3.1,5.4,59,0.00,,,0.01,pywws,2013-05-02 16:39:00,
2013-05-02 12:45:00,68.0,53.6,30.29,SE,135,3.8,9.2,60,0.00,,,0.01,pywws,2013-05-02 16:45:00,
2013-05-02 12:50:00,68.5,53.6,30.28,SE,135,1.6,3.1,59,0.00,,,0.01,pywws,2013-05-02 16:50:00,
2013-05-02 12:56:00,68.5,54.5,30.29,SE,135,5.4,7.6,61,0.00,,,0.01,pywws,2013-05-02 16:56:00,
2013-05-02 13:02:00,66.2,53.2,30.28,SE,135,5.4,12.1,63,0.00,,,0.01,pywws,2013-05-02 17:02:00,
2013-05-02 13:07:00,65.1,53.5,30.29,SE,135,3.1,6.0,66,0.00,,,0.01,pywws,2013-05-02 17:07:00,
2013-05-02 13:13:00,65.5,53.8,30.29,SW,225,1.6,3.8,66,0.00,,,0.01,pywws,2013-05-02 17:13:00,
2013-05-02 13:18:00,66.6,54.4,30.28,SE,135,3.1,6.0,65,0.00,,,0.01,pywws,2013-05-02 17:18:00,
2013-05-02 13:24:00,66.4,53.8,30.28,SE,135,2.2,4.5,64,0.00,,,0.01,pywws,2013-05-02 17:24:00,
2013-05-02 13:30:00,66.6,54.4,30.28,WSW,248,3.1,6.0,65,0.00,,,0.01,pywws,2013-05-02 17:30:00,
2013-05-02 13:35:00,68.2,55.1,30.28,WSW,248,2.2,3.8,63,0.00,,,0.01,pywws,2013-05-02 17:35:00,
2013-05-02 13:41:00,67.1,54.5,30.28,East,90,0.7,2.2,64,0.00,,,0.01,pywws,2013-05-02 17:41:00,
2013-05-02 13:46:00,67.1,54.9,30.27,East,90,1.6,3.1,65,0.00,,,0.01,pywws,2013-05-02 17:46:00,
2013-05-02 13:52:00,67.8,55.2,30.27,SW,225,3.1,6.0,64,0.00,,,0.01,pywws,2013-05-02 17:52:00,
2013-05-02 13:58:00,67.3,54.2,30.27,NE,45,1.6,3.1,63,0.00,,,0.01,pywws,2013-05-02 17:58:00,
2013-05-02 14:03:00,68.0,54.5,30.27,East,90,1.6,3.8,62,0.00,,,0.01,pywws,2013-05-02 18:03:00,
2013-05-02 14:09:00,67.6,55.0,30.27,East,90,5.4,6.9,64,0.00,,,0.01,pywws,2013-05-02 18:09:00,
2013-05-02 14:14:00,66.7,54.2,30.27,South,180,3.8,6.9,64,0.00,,,0.01,pywws,2013-05-02 18:14:00,
2013-05-02 14:20:00,65.5,53.8,30.27,West,270,3.8,7.6,66,0.00,,,0.01,pywws,2013-05-02 18:20:00,
2013-05-02 14:26:00,66.6,54.8,30.27,North,0,3.1,5.4,66,0.00,,,0.01,pywws,2013-05-02 18:26:00,
2013-05-02 14:32:00,67.6,55.9,30.27,NE,45,1.6,3.8,66,0.00,,,0.01,pywws,2013-05-02 18:32:00,
2013-05-02 14:38:00,68.7,55.6,30.27,East,90,3.8,5.4,63,0.00,,,0.01,pywws,2013-05-02 18:38:00,
2013-05-02 14:43:00,68.9,54.0,30.27,East,90,4.5,9.2,59,0.00,,,0.01,pywws,2013-05-02 18:43:00,
2013-05-02 14:49:00,69.3,53.8,30.27,NE,45,3.8,5.4,58,0.00,,,0.01,pywws,2013-05-02 18:49:00,
2013-05-02 14:54:00,68.9,54.4,30.27,SE,135,3.8,6.0,60,0.00,,,0.01,pywws,2013-05-02 18:54:00,
2013-05-02 15:00:00,69.8,54.8,30.27,West,270,1.6,2.2,59,0.00,,,0.01,pywws,2013-05-02 19:00:00,
2013-05-02 15:06:00,69.6,52.7,30.26,NE,45,3.8,9.2,55,0.00,,,0.01,pywws,2013-05-02 19:06:00,
2013-05-02 15:11:00,69.3,53.8,30.27,South,180,6.0,9.2,58,0.00,,,0.01,pywws,2013-05-02 19:11:00,
2013-05-02 15:17:00,68.9,53.5,30.27,East,90,4.5,9.2,58,0.00,,,0.01,pywws,2013-05-02 19:17:00,
2013-05-02 15:22:00,68.5,52.7,30.27,South,180,5.4,9.8,57,0.00,,,0.01,pywws,2013-05-02 19:22:00,
2013-05-02 15:28:00,68.4,53.5,30.27,NW,315,6.0,9.8,59,0.00,,,0.01,pywws,2013-05-02 19:28:00,
2013-05-02 15:34:00,66.7,53.3,30.27,NE,45,3.1,6.9,62,0.00,,,0.01,pywws,2013-05-02 19:34:00,
2013-05-02 15:39:00,66.6,54.0,30.27,East,90,3.1,5.4,64,0.00,,,0.01,pywws,2013-05-02 19:39:00,
2013-05-02 15:45:00,67.1,53.6,30.27,NE,45,3.8,6.9,62,0.00,,,0.01,pywws,2013-05-02 19:45:00,
2013-05-02 15:50:00,66.2,53.2,30.27,East,90,3.1,6.9,63,0.00,,,0.01,pywws,2013-05-02 19:50:00,
2013-05-02 15:56:00,65.7,53.6,30.26,NE,45,3.8,8.3,65,0.00,,,0.01,pywws,2013-05-02 19:56:00,
2013-05-02 16:02:00,65.1,53.1,30.27,SE,135,4.5,11.4,65,0.00,,,0.01,pywws,2013-05-02 20:02:00,
2013-05-02 16:07:00,64.4,52.8,30.26,East,90,3.8,7.6,66,0.00,,,0.01,pywws,2013-05-02 20:07:00,
2013-05-02 16:14:00,64.2,52.6,30.26,East,90,3.1,6.0,66,0.00,,,0.01,pywws,2013-05-02 20:14:00,
2013-05-02 16:19:00,64.0,52.9,30.26,East,90,5.4,9.2,67,0.00,,,0.01,pywws,2013-05-02 20:19:00,
2013-05-02 16:25:00,64.0,53.3,30.26,North,0,3.1,8.3,68,0.00,,,0.01,pywws,2013-05-02 20:25:00,
2013-05-02 16:30:00,64.2,53.4,30.25,East,90,3.1,6.9,68,0.00,,,0.01,pywws,2013-05-02 20:30:00,
2013-05-02 16:36:00,64.4,53.6,30.26,South,180,3.1,6.0,68,0.00,,,0.01,pywws,2013-05-02 20:36:00,
2013-05-02 16:42:00,64.8,53.5,30.25,WSW,248,3.8,7.6,67,0.00,,,0.01,pywws,2013-05-02 20:42:00,
2013-05-02 16:47:00,64.8,53.5,30.25,West,270,3.1,4.5,67,0.00,,,0.01,pywws,2013-05-02 20:47:00,
2013-05-02 16:53:00,64.4,53.6,30.25,NE,45,1.6,3.8,68,0.00,,,0.01,pywws,2013-05-02 20:53:00,
2013-05-02 16:58:00,64.2,53.8,30.25,NNE,22,2.2,3.8,69,0.00,,,0.01,pywws,2013-05-02 20:58:00,
2013-05-02 17:04:00,64.0,54.1,30.25,South,180,6.0,9.2,70,0.00,,,0.01,pywws,2013-05-02 21:04:00,
2013-05-02 17:10:00,63.7,54.1,30.25,NE,45,3.1,3.8,71,0.00,,,0.01,pywws,2013-05-02 21:10:00,
2013-05-02 17:15:00,63.9,54.3,30.25,East,90,1.6,3.1,71,0.00,,,0.01,pywws,2013-05-02 21:15:00,
2013-05-02 17:21:00,64.2,54.6,30.25,East,90,1.6,3.1,71,0.00,,,0.01,pywws,2013-05-02 21:21:00,
2013-05-02 17:27:00,63.7,54.1,30.25,East,90,3.8,6.9,71,0.00,,,0.01,pywws,2013-05-02 21:27:00,
2013-05-02 17:32:00,63.3,53.8,30.25,East,90,2.2,3.8,71,0.00,,,0.01,pywws,2013-05-02 21:32:00,
2013-05-02 17:38:00,63.0,53.4,30.25,ENE,68,3.8,6.0,71,0.00,,,0.01,pywws,2013-05-02 21:38:00,
2013-05-02 17:43:00,63.0,53.8,30.25,East,90,1.6,3.1,72,0.00,,,0.01,pywws,2013-05-02 21:43:00,
2013-05-02 17:49:00,62.8,54.0,30.25,NE,45,2.2,3.1,73,0.00,,,0.01,pywws,2013-05-02 21:49:00,
2013-05-02 17:54:00,62.4,54.0,30.24,North,0,0.7,2.2,74,0.00,,,0.01,pywws,2013-05-02 21:54:00,
2013-05-02 18:00:00,62.1,53.7,30.24,NE,45,1.6,2.2,74,0.00,,,0.01,pywws,2013-05-02 22:00:00,
2013-05-02 18:06:00,61.7,53.7,30.25,NE,45,3.1,6.0,75,0.00,,,0.01,pywws,2013-05-02 22:06:00,
2013-05-02 18:11:00,61.2,53.2,30.24,NE,45,2.2,3.8,75,0.00,,,0.01,pywws,2013-05-02 22:11:00,
2013-05-02 18:17:00,61.2,53.2,30.24,East,90,4.5,6.9,75,0.00,,,0.01,pywws,2013-05-02 22:17:00,
2013-05-02 18:23:00,60.8,52.8,30.24,NE,45,2.2,3.8,75,0.00,,,0.01,pywws,2013-05-02 22:23:00,
2013-05-02 18:28:00,60.6,53.4,30.24,NE,45,1.6,2.2,77,0.00,,,0.01,pywws,2013-05-02 22:28:00,
2013-05-02 18:34:00,60.4,53.5,30.24,SW,225,1.6,2.2,78,0.00,,,0.01,pywws,2013-05-02 22:34:00,
2013-05-02 18:39:00,60.8,53.2,30.24,North,0,1.6,3.8,76,0.00,,,0.01,pywws,2013-05-02 22:39:00,
2013-05-02 18:46:00,60.8,53.2,30.24,South,180,2.2,3.8,76,0.00,,,0.01,pywws,2013-05-02 22:46:00,
2013-05-02 18:51:00,60.6,53.4,30.24,East,90,3.1,4.5,77,0.00,,,0.01,pywws,2013-05-02 22:51:00,
2013-05-02 18:57:00,60.4,53.2,30.24,East,90,3.1,3.8,77,0.00,,,0.01,pywws,2013-05-02 22:57:00,
2013-05-02 19:02:00,60.3,53.0,30.24,SE,135,1.6,2.2,77,0.00,,,0.01,pywws,2013-05-02 23:02:00,
2013-05-02 19:08:00,59.9,52.7,30.24,South,180,2.2,5.4,77,0.00,,,0.01,pywws,2013-05-02 23:08:00,
2013-05-02 19:14:00,59.5,52.7,30.24,SE,135,3.1,3.8,78,0.00,,,0.01,pywws,2013-05-02 23:14:00,
2013-05-02 19:19:00,59.4,52.8,30.24,East,90,2.2,3.8,79,0.00,,,0.01,pywws,2013-05-02 23:19:00,
2013-05-02 19:25:00,59.4,53.2,30.24,East,90,2.2,3.8,80,0.00,,,0.01,pywws,2013-05-02 23:25:00,
2013-05-02 19:30:00,59.0,52.8,30.24,East,90,2.2,3.8,80,0.00,,,0.01,pywws,2013-05-02 23:30:00,
2013-05-02 19:36:00,58.8,53.3,30.24,North,0,0.0,0.7,82,0.00,,,0.01,pywws,2013-05-02 23:36:00,
2013-05-02 19:42:00,58.6,53.5,30.24,NE,45,2.2,3.8,83,0.00,,,0.01,pywws,2013-05-02 23:42:00,
2013-05-02 19:47:00,58.1,53.3,30.24,East,90,1.6,2.2,84,0.00,,,0.01,pywws,2013-05-02 23:47:00,
2013-05-02 19:53:00,57.7,52.9,30.24,South,180,2.2,4.5,84,0.00,,,0.01,pywws,2013-05-02 23:53:00,
2013-05-02 19:58:00,57.7,52.9,30.24,East,90,0.7,3.1,84,0.00,,,0.01,pywws,2013-05-02 23:58:00,
2013-05-02 20:04:00,57.6,53.1,30.24,South,180,2.2,3.1,85,0.00,,,0.01,pywws,2013-05-03 00:04:00,
2013-05-02 20:10:00,57.4,52.9,30.24,SW,225,5.4,7.6,85,0.00,,,0.01,pywws,2013-05-03 00:10:00,
2013-05-02 20:15:00,57.2,52.7,30.24,East,90,6.0,7.6,85,0.00,,,0.01,pywws,2013-05-03 00:15:00,
2013-05-02 20:21:00,57.0,52.9,30.24,ESE,112,3.1,5.4,86,0.00,,,0.01,pywws,2013-05-03 00:21:00,
2013-05-02 20:26:00,56.8,52.7,30.24,SE,135,4.5,6.9,86,0.00,,,0.01,pywws,2013-05-03 00:26:00,
2013-05-02 20:32:00,56.8,53.0,30.24,SW,225,0.7,1.6,87,0.00,,,0.01,pywws,2013-05-03 00:32:00,
2013-05-02 20:38:00,57.0,53.2,30.24,NE,45,2.2,3.8,87,0.00,,,0.01,pywws,2013-05-03 00:38:00,
2013-05-02 20:43:00,57.0,53.2,30.25,East,90,1.6,3.8,87,0.00,,,0.01,pywws,2013-05-03 00:43:00,
2013-05-02 20:49:00,57.0,53.2,30.25,West,270,1.6,2.2,87,0.00,,,0.01,pywws,2013-05-03 00:49:00,
2013-05-02 20:54:00,57.0,52.9,30.25,SE,135,4.5,7.6,86,0.00,,,0.01,pywws,2013-05-03 00:54:00,
2013-05-02 21:00:00,57.2,52.7,30.25,South,180,2.2,3.8,85,0.00,,,0.01,pywws,2013-05-03 01:00:00,
2013-05-02 21:06:00,57.2,52.7,30.25,SE,135,2.2,4.5,85,0.00,,,0.01,pywws,2013-05-03 01:06:00,
2013-05-02 21:12:00,57.0,52.9,30.25,East,90,3.1,4.5,86,0.00,,,0.01,pywws,2013-05-03 01:12:00,
2013-05-02 21:18:00,56.8,52.7,30.25,ESE,112,4.5,6.9,86,0.00,,,0.01,pywws,2013-05-03 01:18:00,
2013-05-02 21:23:00,56.8,52.7,30.25,East,90,2.2,3.1,86,0.00,,,0.01,pywws,2013-05-03 01:23:00,
2013-05-02 21:29:00,56.8,52.7,30.26,SE,135,1.6,3.1,86,0.00,,,0.01,pywws,2013-05-03 01:29:00,
2013-05-02 21:34:00,56.8,52.7,30.25,SW,225,1.6,3.1,86,0.00,,,0.01,pywws,2013-05-03 01:34:00,
2013-05-02 21:40:00,56.8,52.7,30.26,SE,135,0.7,3.1,86,0.00,,,0.01,pywws,2013-05-03 01:40:00,
2013-05-02 21:46:00,56.7,52.5,30.26,SE,135,0.7,3.1,86,0.00,,,0.01,pywws,2013-05-03 01:46:00,
2013-05-02 21:51:00,56.7,52.5,30.26,NE,45,2.2,3.1,86,0.00,,,0.01,pywws,2013-05-03 01:51:00,
2013-05-02 21:57:00,56.7,52.5,30.25,East,90,0.7,2.2,86,0.00,,,0.01,pywws,2013-05-03 01:57:00,
2013-05-02 22:02:00,56.8,52.7,30.26,SE,135,1.6,3.1,86,0.00,,,0.01,pywws,2013-05-03 02:02:00,
2013-05-02 22:08:00,56.7,52.5,30.26,SE,135,2.2,4.5,86,0.00,,,0.01,pywws,2013-05-03 02:08:00,
2013-05-02 22:14:00,56.7,52.5,30.26,South,180,3.8,5.4,86,0.00,,,0.01,pywws,2013-05-03 02:14:00,
2013-05-02 22:19:00,56.7,52.5,30.26,SE,135,0.7,1.6,86,0.00,,,0.01,pywws,2013-05-03 02:19:00,
2013-05-02 22:25:00,56.5,52.3,30.26,East,90,3.1,6.9,86,0.00,,,0.01,pywws,2013-05-03 02:25:00,
2013-05-02 22:30:00,56.1,52.6,30.26,South,180,1.6,3.1,88,0.00,,,0.01,pywws,2013-05-03 02:30:00,
2013-05-02 22:36:00,55.8,52.6,30.25,SE,135,1.6,2.2,89,0.00,,,0.01,pywws,2013-05-03 02:36:00,
2013-05-02 22:42:00,55.6,52.7,30.25,East,90,0.7,2.2,90,0.00,,,0.01,pywws,2013-05-03 02:42:00,
2013-05-02 22:47:00,55.6,52.7,30.25,NE,45,0.7,1.6,90,0.00,,,0.01,pywws,2013-05-03 02:47:00,
2013-05-02 22:53:00,55.6,52.7,30.25,East,90,1.6,3.1,90,0.00,,,0.01,pywws,2013-05-03 02:53:00,
2013-05-02 22:58:00,55.6,52.7,30.25,NW,315,1.6,4.5,90,0.00,,,0.01,pywws,2013-05-03 02:58:00,
2013-05-02 23:04:00,55.8,52.9,30.25,NW,315,2.2,4.5,90,0.00,,,0.01,pywws,2013-05-03 03:04:00,
2013-05-02 23:10:00,55.6,52.7,30.25,South,180,0.0,0.7,90,0.00,,,0.01,pywws,2013-05-03 03:10:00,
2013-05-02 23:18:00,55.6,52.7,30.25,SW,225,0.7,2.2,90,0.00,,,0.01,pywws,2013-05-03 03:18:00,
2013-05-02 23:23:00,55.6,52.7,30.25,East,90,1.6,4.5,90,0.00,,,0.01,pywws,2013-05-03 03:23:00,
2013-05-02 23:29:00,55.6,52.7,30.25,East,90,1.6,3.1,90,0.00,,,0.01,pywws,2013-05-03 03:29:00,
2013-05-02 23:34:00,55.6,52.4,30.25,SE,135,3.1,5.4,89,0.00,,,0.01,pywws,2013-05-03 03:34:00,
2013-05-02 23:40:00,55.6,52.1,30.25,SE,135,0.7,1.6,88,0.00,,,0.01,pywws,2013-05-03 03:40:00,
2013-05-02 23:46:00,55.6,52.1,30.24,SW,225,2.2,4.5,88,0.00,,,0.01,pywws,2013-05-03 03:46:00,
2013-05-02 23:51:00,55.6,52.1,30.24,East,90,3.1,6.9,88,0.00,,,0.01,pywws,2013-05-03 03:51:00,
2013-05-02 23:57:00,55.8,51.9,30.24,East,90,2.2,3.8,87,0.00,,,0.01,pywws,2013-05-03 03:57:00,